Date String (YYYY-MM-DD hh:mm:ss) UTC,Instrument flags,absolute air pressure of the measurement (hPa),sample flow rate (lpm),inlet stack bypass flow (lpm),air temperature of the measurement (°C),ambient temperature measured by the external sensor (°C),aerosol sample conditioner tube jacket temperature (°C),OPC LED temperature (°C),internal box temperature (°C),relative humidity of the measurement (%),span deviation,mass concentration of particles derived from Lorenz-Mie calculation of OPC scattering (μg/m³),mass concentration of particles derived from Lorenz-Mie calculation of OPC scattering (μg/m³),mass concentration of particles derived from Lorenz-Mie calculation of OPC scattering (μg/m³)
DateTimeUTC,F1_M11,P_M11,Q1_M11,Q2_M11,T1_M11,T2_M11,T3_M11,T4_M11,T5_M11,U1_M11,ZSPAN_M11,X2_M11,X0_M11,X1_M11
2024-03-13 17:00:00,SystemResetWarning,0822.0,5.00,000.00,020.6,020.1,000.0,029.1,022.5,26.4,0000.0,0004.29,0009.83,0003.49
2024-03-13 17:01:00,SystemResetWarning,0822.0,5.00,000.00,020.6,020.1,000.0,029.1,022.5,26.8,0000.0,0004.23,0009.37,0003.49
2024-03-13 17:02:00,SystemResetWarning,0821.9,5.00,000.00,020.6,020.1,000.0,029.1,022.5,26.9,0000.0,0004.23,0009.27,0003.49
2024-03-13 17:03:00,SystemResetWarning,0821.9,5.00,000.00,020.6,020.1,000.0,029.1,022.5,26.9,0000.0,0004.22,0009.04,0003.50
2024-03-13 17:04:00,SystemResetWarning,0821.9,5.01,000.00,020.6,020.1,000.0,029.1,022.5,27.0,0000.0,0004.23,0008.50,0003.52
2024-03-13 17:05:00,SystemResetWarning,0822.0,5.00,000.00,020.7,020.1,000.0,029.1,022.5,26.9,0000.0,0004.26,0008.50,0003.54
2024-03-13 17:06:00,SystemResetWarning,0822.0,5.00,000.00,020.7,020.1,000.0,029.1,022.5,26.7,0000.0,0004.24,0009.06,0003.54
2024-03-13 17:07:00,SystemResetWarning,0822.0,5.00,000.00,020.7,020.1,000.0,029.1,022.5,26.8,0000.0,0004.23,0009.17,0003.55
2024-03-13 17:08:00,SystemResetWarning,0821.9,4.99,000.00,020.7,020.1,000.0,029.1,022.5,26.8,0000.0,0004.27,0009.24,0003.56
2024-03-13 17:09:00,SystemResetWarning,0822.0,5.01,000.00,020.7,020.1,000.0,029.1,022.5,26.8,0000.0,0004.30,0009.22,0003.57
2024-03-13 17:10:00,SystemResetWarning,0821.9,5.00,000.00,020.7,020.1,000.0,029.1,022.5,26.8,0000.0,0004.30,0009.66,0003.57
2024-03-13 17:11:00,SystemResetWarning,0821.9,5.01,000.00,020.7,020.1,000.0,029.1,022.5,27.0,0000.0,0004.30,0010.08,0003.58
2024-03-13 17:12:00,SystemResetWarning,0821.8,5.00,000.00,020.7,020.1,000.0,029.1,022.5,27.0,0000.0,0004.29,0010.36,0003.59
2024-03-13 17:13:00,SystemResetWarning,0821.9,5.00,000.00,020.7,020.1,000.0,029.1,022.5,27.1,0000.0,0004.29,0010.51,0003.61
2024-03-13 17:14:00,SystemResetWarning,0821.9,5.00,000.00,020.7,020.1,000.0,029.1,022.5,27.0,0000.0,0004.36,0010.93,0003.63
2024-03-13 17:15:00,SystemResetWarning,0821.8,5.00,000.00,020.7,020.2,000.0,029.1,022.5,26.9,0000.0,0004.40,0011.01,0003.63
2024-03-13 17:16:00,SystemResetWarning,0821.8,5.00,000.00,020.7,020.2,000.0,029.1,022.5,26.9,0000.0,0004.44,0011.07,0003.63
2024-03-13 17:17:00,SystemResetWarning,0821.8,5.00,000.00,020.7,020.2,000.0,029.2,022.5,26.9,0000.0,0004.47,0010.44,0003.65
2024-03-13 17:18:00,SystemResetWarning,0821.8,5.00,000.00,020.7,020.2,000.0,029.2,022.5,26.7,0000.0,0004.48,0010.37,0003.65
2024-03-13 17:19:00,SystemResetWarning,0821.8,5.01,000.00,020.7,020.2,000.0,029.2,022.6,26.8,0000.0,0004.53,0010.50,0003.67
2024-03-13 17:20:00,SystemResetWarning,0821.8,5.01,000.00,020.7,020.2,000.0,029.2,022.6,27.0,0000.0,0004.56,0010.61,0003.68
2024-03-13 17:21:00,SystemResetWarning,0821.8,5.00,000.00,020.7,020.2,000.0,029.2,022.6,27.0,0000.0,0004.57,0010.47,0003.69
2024-03-13 17:22:00,SystemResetWarning,0821.8,5.01,000.00,020.7,020.2,000.0,029.2,022.6,26.9,0000.0,0004.58,0010.19,0003.70
2024-03-13 17:23:00,SystemResetWarning,0821.8,4.99,000.00,020.7,020.2,000.0,029.2,022.6,26.9,0000.0,0004.65,0010.25,0003.71
2024-03-13 17:24:00,SystemResetWarning,0821.8,4.99,000.00,020.7,020.2,000.0,029.2,022.6,27.1,0000.0,0004.67,0010.19,0003.72
2024-03-13 17:25:00,SystemResetWarning,0821.8,5.00,000.00,020.7,020.2,000.0,029.2,022.6,28.0,0000.0,0004.64,0010.13,0003.72
2024-03-13 17:26:00,SystemResetWarning,0821.8,5.01,000.00,020.7,020.2,000.0,029.2,022.6,28.3,0000.0,0004.64,0010.26,0003.71
2024-03-13 17:27:00,SystemResetWarning,0821.8,5.01,000.00,020.8,020.2,000.0,029.2,022.6,27.6,0000.0,0004.61,0010.78,0003.71
2024-03-13 17:28:00,SystemResetWarning,0821.7,5.00,000.00,020.8,020.2,000.0,029.2,022.6,27.8,0000.0,0004.59,0010.80,0003.70
2024-03-13 17:29:00,SystemResetWarning,0821.7,4.99,000.00,020.8,020.2,000.0,029.2,022.6,27.6,0000.0,0004.62,0011.23,0003.71
2024-03-13 17:30:00,SystemResetWarning,0821.7,5.00,000.00,020.8,020.2,000.0,029.2,022.6,27.1,0000.0,0004.59,0011.26,0003.71
2024-03-13 17:31:00,SystemResetWarning,0821.7,4.99,000.00,020.8,020.2,000.0,029.2,022.6,27.0,0000.0,0004.56,0011.38,0003.71
2024-03-13 17:32:00,SystemResetWarning,0821.7,5.00,000.00,020.8,020.2,000.0,029.2,022.6,27.0,0000.0,0004.57,0011.86,0003.71
2024-03-13 17:33:00,SystemResetWarning,0821.6,5.00,000.00,020.8,020.2,000.0,029.2,022.6,26.9,0000.0,0004.60,0011.58,0003.72
2024-03-13 17:34:00,SystemResetWarning,0821.7,5.00,000.00,020.8,020.2,000.0,029.2,022.6,27.1,0000.0,0004.57,0010.90,0003.72
2024-03-13 17:35:00,SystemResetWarning,0821.6,5.00,000.00,020.8,020.2,000.0,029.2,022.6,27.5,0000.0,0004.58,0012.28,0003.72
2024-03-13 17:36:00,SystemResetWarning,0821.6,5.00,000.00,020.8,020.2,000.0,029.2,022.6,27.3,0000.0,0004.57,0012.49,0003.72
2024-03-13 17:37:00,SystemResetWarning,0821.6,4.99,000.00,020.8,020.2,000.0,029.2,022.6,27.3,0000.0,0004.54,0012.24,0003.73
2024-03-13 17:38:00,SystemResetWarning,0821.7,5.01,000.00,020.8,020.2,000.0,029.2,022.6,27.8,0000.0,0004.53,0012.05,0003.73
2024-03-13 17:39:00,SystemResetWarning,0821.7,5.00,000.00,020.8,020.2,000.0,029.2,022.6,28.0,0000.0,0004.56,0012.30,0003.75
2024-03-13 17:40:00,SystemResetWarning,0821.5,5.00,000.00,020.8,020.3,000.0,029.2,022.6,27.8,0000.0,0004.57,0013.07,0003.75
2024-03-13 17:41:00,SystemResetWarning,0821.6,5.01,000.00,020.8,020.3,000.0,029.3,022.6,27.4,0000.0,0004.62,0013.26,0003.76
2024-03-13 17:42:00,SystemResetWarning,0821.6,4.98,000.00,020.8,020.3,000.0,029.2,022.6,26.9,0000.0,0004.62,0014.14,0003.76
2024-03-13 17:43:00,SystemResetWarning,0821.8,4.99,000.00,020.8,020.3,000.0,029.2,022.7,26.4,0000.0,0004.61,0013.92,0003.76
2024-03-13 17:44:00,SystemResetWarning,0822.0,5.01,000.00,020.8,020.3,000.0,029.3,022.7,26.5,0000.0,0004.57,0013.84,0003.75
2024-03-13 17:45:00,SystemResetWarning,0822.0,5.01,000.00,020.8,020.3,000.0,029.3,022.7,27.0,0000.0,0004.60,0013.93,0003.76
2024-03-13 17:46:00,SystemResetWarning,0822.0,4.98,000.00,020.8,020.3,000.0,029.3,022.7,27.4,0000.0,0004.58,0012.66,0003.76
2024-03-13 17:47:00,SystemResetWarning,0822.0,5.00,000.00,020.8,020.3,000.0,029.3,022.7,27.2,0000.0,0004.59,0012.29,0003.76
2024-03-13 17:48:00,SystemResetWarning,0821.9,4.99,000.00,020.8,020.3,000.0,029.3,022.7,26.9,0000.0,0004.58,0012.51,0003.76
2024-03-13 17:49:00,SystemResetWarning,0822.0,5.00,000.00,020.8,020.3,000.0,029.3,022.7,26.3,0000.0,0004.53,0012.21,0003.76
2024-03-13 17:50:00,SystemResetWarning,0822.1,5.00,000.00,020.8,020.3,000.0,029.3,022.7,26.3,0000.0,0004.50,0012.38,0003.75
2024-03-13 17:51:00,SystemResetWarning,0821.9,5.01,000.00,020.9,020.3,000.0,029.3,022.7,26.3,0000.0,0004.47,0011.42,0003.75
2024-03-13 17:52:00,SystemResetWarning,0821.9,5.00,000.00,020.9,020.3,000.0,029.3,022.7,26.2,0000.0,0004.43,0011.49,0003.74
2024-03-13 17:53:00,SystemResetWarning,0822.0,5.00,000.00,020.9,020.3,000.0,029.3,022.7,26.3,0000.0,0004.42,0010.39,0003.74
2024-03-13 17:54:00,SystemResetWarning,0822.0,4.99,000.00,020.9,020.3,000.0,029.3,022.7,26.3,0000.0,0004.44,0010.03,0003.74
2024-03-13 17:55:00,SystemResetWarning,0821.8,4.99,000.00,020.9,020.3,000.0,029.3,022.7,26.4,0000.0,0004.46,0010.08,0003.75
2024-03-13 17:56:00,SystemResetWarning,0821.7,5.01,000.00,020.9,020.3,000.0,029.3,022.7,26.7,0000.0,0004.45,0010.00,0003.74
2024-03-13 17:57:00,SystemResetWarning,0821.5,5.01,000.00,020.9,020.3,000.0,029.3,022.7,27.1,0000.0,0004.45,0010.06,0003.74
2024-03-13 17:58:00,SystemResetWarning,0821.5,5.00,000.00,020.9,020.3,000.0,029.3,022.7,27.2,0000.0,0004.45,0011.26,0003.75
2024-03-13 17:59:00,SystemResetWarning,0821.3,4.99,000.00,020.9,020.4,000.0,029.3,022.7,26.7,0000.0,0004.45,0011.67,0003.75
